[[{"header":{"parameterUnit":"m.s-1","parameterCategory":1,"la1":30.2991,"la2":30.254,"lo1":-89.0895,"lo2":-89.0444,"dy":0.0017,"dx":0.0017,"nx":28,"ny":28,"refTime":"2025-07-27T21:00:00:Z","depth":0,"parameterNumber":2,"parameterNumberName":"U-component_of_WINDS"},"data":[0,0,0,0,0,0,0,0,0,0,0,0,0,0,0,0,0,0,0,0,0,0,0,0,0,0,0,0,0,0,0,0,0,0,0,0,0,0,0,0,0,0,0,0,0,0,0,0,0,0,0,0,0,0,0,0,0,0,3.32,3.3198,0,3.3031,3.3029,3.3027,3.2858,3.2856,3.2854,3.2852,3.2673,3.267,3.2668,0,0,0,0,0,0,0,0,0,0,0,0,0,3.3373,3.3371,3.32,3.3198,3.3196,3.3031,3.3029,3.3027,3.2859,3.2856,3.2853,3.2851,3.2674,3.2671,3.2668,0,0,0,0,0,0,0,0,0,0,0,0,0,3.3261,3.337,3.32,3.3092,3.3081,3.3032,3.3029,3.3026,3.2859,3.2856,3.2853,3.2849,3.2675,3.2671,3.2667,3.2709,0,0,3.2655,3.2653,0,0,0,0,0,0,0,0,3.3267,3.3254,3.311,3.31,3.3087,3.2962,3.3024,3.292,3.286,3.2943,3.2852,3.2848,3.2772,3.2759,3.2735,3.2701,3.2693,3.2654,3.2652,3.265,3.2649,0,0,0,0,0,0,0,3.3275,3.3261,3.3133,3.3108,3.3094,3.3051,3.3031,3.3004,3.2878,3.2936,3.2923,3.2906,3.2765,3.2739,3.2729,3.269,3.2655,3.2651,3.2648,3.2647,3.2685,3.2688,0,0,0,0,0,0,3.33,3.3268,3.3138,3.3128,3.3171,3.3051,3.3029,3.3006,3.2878,3.2855,3.2909,3.2899,3.2748,3.2734,3.2723,3.2765,3.265,3.2647,3.2644,3.2681,3.2685,3.2689,0,0,0,0,0,0,3.3304,3.329,3.3145,3.3195,3.3173,3.3051,3.3027,3.3004,3.2978,3.2858,3.2834,3.2906,3.2745,3.2728,3.2715,3.2756,3.2645,3.2641,3.2677,3.2683,3.2687,3.285,0,0,0,0,0,0,3.331,3.3293,3.3308,3.3196,3.3171,3.3142,3.3029,3.3003,3.2973,3.2958,3.2849,3.2828,3.2741,3.2722,3.2711,3.2749,3.2638,3.2673,3.268,3.2686,3.284,3.286,3.2877,0,0,0,0,0,3.3317,3.3359,3.331,3.3295,3.3188,3.3144,3.3129,3.303,3.2977,3.2991,3.2914,3.2831,3.2754,3.2722,3.2708,3.2745,3.267,3.2678,3.2685,3.2832,3.2856,3.2876,0,0,0,0,0,0,3.3476,3.3342,3.3286,3.3293,3.3232,3.3116,3.313,3.3058,3.3009,3.2997,3.2874,3.2851,3.2852,3.2797,3.2763,3.2781,3.27,3.2706,3.2817,3.2838,3.2856,3.287,3.2635,0,0,0,0,0,3.3512,3.349,3.3373,3.339,3.3363,3.3253,3.323,3.3159,3.309,3.3062,3.2983,3.2918,3.2879,3.2855,3.2812,3.2832,3.2806,3.2851,3.2869,3.2885,3.2891,3.2898,3.2917,3.2714,3.2714,3.2714,0,0,3.3586,3.351,3.3503,3.3421,3.3364,3.3343,3.3232,3.3213,3.3195,3.3058,3.3042,3.2983,3.2901,3.2905,3.2903,3.2859,3.2941,3.2894,3.2908,3.2905,3.2908,3.2928,3.2945,3.272,3.2719,3.2718,0,0,3.371,3.365,3.3659,3.3606,3.3524,3.3451,3.3454,3.335,3.3306,3.3288,3.3185,3.3162,3.3097,3.3044,3.3009,3.3117,3.304,3.3106,3.3201,3.3211,3.3227,3.324,3.328,3.3296,3.3113,3.3113,3.3113,0,3.3811,3.3776,3.3672,3.3661,3.3629,3.3507,3.3515,3.3468,3.3376,3.3355,3.3309,3.3227,3.3163,3.3154,3.3181,3.3156,3.3155,3.3118,3.3233,3.3246,3.3257,3.3293,3.3309,3.3122,3.3121,3.312,3.3119,0,3.3906,3.3884,3.39,3.3818,3.3787,3.3786,3.3681,3.3662,3.3595,3.3527,3.3511,3.3431,3.3372,3.3364,3.3297,3.3346,3.3322,3.3256,3.3173,3.3287,3.3319,3.3332,3.3134,3.3131,3.3128,3.3126,0,0,3.4123,3.3986,3.3994,3.3956,3.3858,3.3838,3.3831,3.3775,3.3762,3.3703,3.3695,3.3644,3.3584,3.3544,3.347,3.3478,3.3571,3.3411,3.3407,3.3444,3.3622,3.3673,3.3691,3.352,3.3522,3.3524,3.363,0,3.4231,3.4214,3.4122,3.4131,3.411,3.3995,3.399,3.3929,3.3866,3.3838,3.3767,3.3734,3.3656,3.3632,3.3635,3.356,3.3605,3.355,3.351,3.351,3.3535,3.3708,3.376,3.3864,3.3641,3.3643,3.3645,0,3.4353,3.4306,3.4315,3.422,3.4207,3.4204,3.4147,3.4121,3.405,3.4004,3.3962,3.388,3.3867,3.379,3.377,3.3735,3.3713,3.3674,3.3676,3.3668,3.3585,3.3706,3.3894,3.3911,3.3663,3.3662,3.3661,0,3.4513,3.4451,3.4448,3.4419,3.4308,3.4309,3.4262,3.4188,3.4161,3.411,3.4092,3.404,3.4012,3.3973,3.3879,3.3832,3.3871,3.3785,3.3832,3.3835,3.3845,3.3845,3.4034,3.3831,3.383,3.383,3.383,0,3.4643,3.4653,3.4519,3.4518,3.4526,3.442,3.4431,3.4373,3.4308,3.4293,3.419,3.4178,3.4055,3.4029,3.3955,3.3951,3.3938,3.3901,3.3881,3.391,3.3915,3.3894,3.3885,3.3834,3.3833,3.3832,3.3832,0,3.4823,3.4733,3.4723,3.462,3.4594,3.4605,3.4516,3.451,3.4442,3.4425,3.4415,3.4307,3.4272,3.4175,3.4113,3.4064,3.4081,3.4043,3.4106,3.4093,3.4146,3.4143,3.4327,3.4347,3.4132,3.4134,3.4136,0,3.4912,3.4918,3.4816,3.48,3.4759,3.4734,3.4707,3.4603,3.4579,3.45,3.4505,3.4461,3.4421,3.4369,3.4285,3.4238,3.4199,3.4267,3.4191,3.4222,3.4202,3.4203,3.4203,3.4284,3.4287,3.4289,3.4291,0,3.5081,3.5037,3.5003,3.4955,3.4927,3.4883,3.4834,3.4826,3.4709,3.4688,3.4651,3.4621,3.456,3.4518,3.4459,3.4409,3.4332,3.4316,3.4325,3.4355,3.4391,3.4374,3.4152,3.4312,3.431,3.4309,3.4308,3.4307,3.5218,3.5219,3.5149,3.5115,3.5068,3.5025,3.5015,3.4948,3.4916,3.486,3.48,3.4771,3.4701,3.4614,3.457,3.4545,3.4504,3.4516,3.4519,3.4524,3.4538,3.4396,3.4534,3.4533,3.4532,3.4532,3.4531,0,3.5382,3.5332,3.5303,3.5239,3.5213,3.5145,3.5087,3.5069,3.5046,3.4988,3.4952,3.4911,3.4871,3.4786,3.4738,3.4735,3.4698,3.4726,3.4725,3.4715,3.4577,3.4575,3.4756,3.4756,3.4756,3.4756,3.4756,3.4756,3.5465,3.5464,3.5412,3.5386,3.5335,3.5308,3.5281,3.5241,3.5195,3.5155,3.5122,3.5068,3.4999,3.4946,3.4906,3.4882,3.4869,3.4909,3.4874,3.4746,3.4724,3.4704,3.4702,3.4907,3.4907,3.5014,3.5015,3.5016]},{"header":{"parameterUnit":"m.s-1","parameterCategory":1,"la1":30.2991,"la2":30.254,"lo1":-89.0895,"lo2":-89.0444,"dy":0.0017,"dx":0.0017,"nx":28,"ny":28,"refTime":"2025-07-27T21:00:00:Z","depth":0,"parameterNumber":3,"parameterNumberName":"V-component_of_WINDS"},"data":[0,0,0,0,0,0,0,0,0,0,0,0,0,0,0,0,0,0,0,0,0,0,0,0,0,0,0,0,0,0,0,0,0,0,0,0,0,0,0,0,0,0,0,0,0,0,0,0,0,0,0,0,0,0,0,0,0,0,-2.5379,-2.5379,0,-2.5375,-2.5375,-2.5375,-2.5315,-2.5314,-2.5312,-2.5311,-2.5307,-2.5308,-2.531,0,0,0,0,0,0,0,0,0,0,0,0,0,-2.5332,-2.5333,-2.5379,-2.5379,-2.5379,-2.5375,-2.5375,-2.5375,-2.5316,-2.5314,-2.5312,-2.531,-2.5307,-2.5308,-2.531,0,0,0,0,0,0,0,0,0,0,0,0,0,-2.5343,-2.5334,-2.5379,-2.5348,-2.5346,-2.5375,-2.5375,-2.5375,-2.5316,-2.5314,-2.5311,-2.5309,-2.5306,-2.5308,-2.531,-2.5369,0,0,-2.5316,-2.5317,0,0,0,0,0,0,0,0,-2.5342,-2.5345,-2.5353,-2.535,-2.5347,-2.5343,-2.5358,-2.5373,-2.5317,-2.5327,-2.5311,-2.5308,-2.5321,-2.5322,-2.5326,-2.5369,-2.5368,-2.5316,-2.5318,-2.5319,-2.5319,0,0,0,0,0,0,0,-2.5342,-2.5344,-2.5377,-2.5353,-2.535,-2.5335,-2.5334,-2.536,-2.5337,-2.5326,-2.5322,-2.5322,-2.5319,-2.5324,-2.5326,-2.5368,-2.5316,-2.5318,-2.5319,-2.532,-2.5459,-2.5462,0,0,0,0,0,0,-2.5345,-2.5344,-2.5377,-2.5377,-2.5339,-2.5337,-2.5336,-2.5347,-2.5337,-2.5333,-2.5324,-2.5319,-2.5322,-2.5323,-2.5325,-2.5394,-2.5319,-2.532,-2.5322,-2.5457,-2.546,-2.5462,0,0,0,0,0,0,-2.5344,-2.5349,-2.5377,-2.536,-2.5362,-2.5341,-2.5353,-2.5348,-2.5353,-2.5335,-2.5331,-2.5334,-2.532,-2.5322,-2.5359,-2.5393,-2.5321,-2.5323,-2.5454,-2.5458,-2.5461,-2.5532,0,0,0,0,0,0,-2.5343,-2.5349,-2.5371,-2.5361,-2.5363,-2.5411,-2.5355,-2.535,-2.5357,-2.5351,-2.5343,-2.534,-2.5319,-2.5356,-2.5361,-2.5395,-2.5325,-2.5451,-2.5456,-2.546,-2.5526,-2.5537,-2.5547,0,0,0,0,0,-2.5342,-2.5391,-2.5373,-2.5377,-2.5391,-2.5413,-2.5415,-2.539,-2.536,-2.5382,-2.5371,-2.534,-2.5388,-2.536,-2.5365,-2.54,-2.5448,-2.5454,-2.546,-2.5522,-2.5535,-2.5547,0,0,0,0,0,0,-2.5406,-2.5389,-2.5368,-2.5415,-2.5416,-2.5403,-2.543,-2.5405,-2.5414,-2.5408,-2.5376,-2.5375,-2.5417,-2.5411,-2.538,-2.5456,-2.5413,-2.542,-2.5458,-2.5471,-2.5481,-2.5482,-2.5326,0,0,0,0,0,-2.5425,-2.5445,-2.5429,-2.5472,-2.5474,-2.5452,-2.5461,-2.5442,-2.5441,-2.5442,-2.5432,-2.5433,-2.5448,-2.5459,-2.5472,-2.5525,-2.5523,-2.5551,-2.5561,-2.557,-2.5577,-2.5605,-2.5618,-2.5481,-2.5481,-2.5481,0,0,-2.5466,-2.5459,-2.5474,-2.5485,-2.5484,-2.5505,-2.5453,-2.5478,-2.5494,-2.5445,-2.5479,-2.5472,-2.5471,-2.5516,-2.5535,-2.5513,-2.5614,-2.5577,-2.5584,-2.5586,-2.5612,-2.5625,-2.5637,-2.5485,-2.5484,-2.5483,0,0,-2.5552,-2.5548,-2.5584,-2.5584,-2.5582,-2.5567,-2.5576,-2.5566,-2.556,-2.5594,-2.5558,-2.5576,-2.5603,-2.5604,-2.5608,-2.5693,-2.5666,-2.5698,-2.5753,-2.5781,-2.5792,-2.5801,-2.5833,-2.5845,-2.5705,-2.5705,-2.5705,0,-2.5602,-2.5634,-2.5606,-2.5633,-2.5639,-2.5596,-2.5633,-2.5633,-2.5636,-2.5641,-2.5616,-2.565,-2.5645,-2.569,-2.5711,-2.5715,-2.5725,-2.57,-2.5792,-2.5802,-2.581,-2.584,-2.5852,-2.5709,-2.5709,-2.5708,-2.5708,0,-2.5697,-2.5719,-2.5748,-2.5752,-2.5762,-2.5793,-2.577,-2.5783,-2.5762,-2.575,-2.5785,-2.5779,-2.579,-2.5799,-2.5779,-2.5841,-2.5828,-2.5798,-2.5754,-2.5828,-2.5855,-2.5866,-2.5715,-2.5713,-2.5712,-2.5711,0,0,-2.5824,-2.5812,-2.5823,-2.5825,-2.582,-2.5836,-2.5866,-2.5877,-2.5889,-2.5892,-2.5917,-2.594,-2.5913,-2.5918,-2.5897,-2.5922,-2.5991,-2.5889,-2.5888,-2.5909,-2.606,-2.6084,-2.6098,-2.5972,-2.5974,-2.5976,-2.6061,0,-2.5907,-2.5958,-2.5933,-2.5987,-2.6008,-2.5967,-2.5993,-2.5992,-2.5982,-2.5997,-2.5985,-2.6003,-2.5965,-2.5968,-2.599,-2.5978,-2.6021,-2.5971,-2.5996,-2.5997,-2.5999,-2.6112,-2.6137,-2.6217,-2.6071,-2.6073,-2.6075,0,-2.6012,-2.602,-2.6076,-2.6068,-2.6075,-2.6099,-2.6108,-2.6123,-2.6122,-2.6112,-2.6117,-2.6091,-2.612,-2.6075,-2.6115,-2.6081,-2.6089,-2.6085,-2.6088,-2.609,-2.6041,-2.6119,-2.6242,-2.6255,-2.6091,-2.609,-2.6089,0,-2.6101,-2.6125,-2.6162,-2.6164,-2.6155,-2.6173,-2.617,-2.6166,-2.6175,-2.6182,-2.6187,-2.6198,-2.6204,-2.6212,-2.619,-2.6159,-2.6233,-2.6186,-2.6227,-2.6227,-2.6245,-2.6245,-2.6373,-2.6248,-2.6248,-2.6248,-2.6247,0,-2.6198,-2.6234,-2.6202,-2.6225,-2.6264,-2.6235,-2.6275,-2.6267,-2.6264,-2.6285,-2.6249,-2.627,-2.6238,-2.6255,-2.6237,-2.6273,-2.6276,-2.627,-2.6265,-2.6274,-2.6275,-2.628,-2.6274,-2.6251,-2.625,-2.6249,-2.6249,0,-2.6304,-2.6284,-2.6322,-2.631,-2.6308,-2.6337,-2.6327,-2.6348,-2.6334,-2.6361,-2.6365,-2.6344,-2.6363,-2.6341,-2.6357,-2.6345,-2.6394,-2.638,-2.6395,-2.6392,-2.6434,-2.6431,-2.6572,-2.6589,-2.6451,-2.6453,-2.6454,0,-2.6369,-2.6395,-2.6386,-2.6398,-2.6397,-2.6416,-2.6424,-2.6396,-2.6407,-2.6407,-2.6428,-2.6443,-2.6454,-2.6485,-2.6472,-2.6484,-2.6471,-2.6519,-2.6473,-2.6481,-2.6473,-2.6473,-2.6476,-2.6529,-2.6531,-2.6532,-2.6533,0,-2.6485,-2.6474,-2.6487,-2.6498,-2.651,-2.6516,-2.6521,-2.6532,-2.6503,-2.6516,-2.6534,-2.6543,-2.6559,-2.6575,-2.6584,-2.658,-2.6553,-2.6548,-2.6558,-2.6569,-2.6577,-2.6575,-2.6423,-2.6545,-2.6544,-2.6543,-2.6543,-2.6542,-2.6573,-2.6596,-2.6593,-2.661,-2.661,-2.6615,-2.6634,-2.6623,-2.6638,-2.6649,-2.6631,-2.6655,-2.6653,-2.6661,-2.6661,-2.6679,-2.6658,-2.6673,-2.6677,-2.6681,-2.6688,-2.6573,-2.668,-2.668,-2.6679,-2.6679,-2.6679,0,-2.6689,-2.6685,-2.6701,-2.6708,-2.6722,-2.6693,-2.6697,-2.671,-2.6731,-2.6731,-2.6742,-2.6764,-2.6779,-2.6766,-2.6779,-2.6796,-2.6784,-2.68,-2.68,-2.68,-2.6705,-2.6696,-2.681,-2.681,-2.681,-2.681,-2.681,-2.681,-2.6751,-2.6788,-2.6777,-2.6813,-2.6808,-2.6831,-2.6836,-2.684,-2.684,-2.6866,-2.6878,-2.687,-2.6865,-2.6877,-2.689,-2.6886,-2.6893,-2.6915,-2.6906,-2.6819,-2.6806,-2.6794,-2.6785,-2.6916,-2.6916,-2.6999,-2.7,-2.7]}]]